Location: Unnamed
(52.8822°N, 118.0859°W)
Time: 20:53:03
(UTC-06:00)

ISS - Visible Passes

Search period start: 17 May 2021 00:00
Search period end: 27 May 2021 00:00
Orbit: 417 x 422 km, 51.6° (Epoch: 18 May)

Date Brightness Start Highest point End Pass type
(mag) Time Alt. Az. Time Alt. Az. Time Alt. Az.
17 May -3.8 00:12:27 10° WSW 00:15:46 61° SSE 00:19:07 10° E visible
17 May -3.9 01:49:08 10° W 01:52:29 67° S 01:54:24 23° ESE visible
17 May -1.9 03:26:01 10° W 03:33:42 - SE 03:27:10 18° WSW visible
17 May -3.6 23:25:05 10° WSW 23:28:22 51° SSE 23:31:40 10° E visible
18 May -3.9 01:01:41 10° W 01:05:03 72° S 01:07:22 19° E visible
18 May -2.4 02:38:29 10° W 02:40:16 25° WSW 02:40:16 25° WSW visible
18 May -3.3 22:37:47 10° SW 22:40:59 40° SSE 22:44:11 10° E visible
19 May -3.9 00:14:15 10° W 00:17:37 73° S 00:20:59 10° E visible
19 May -3.5 01:51:00 10° W 01:53:58 46° SW 01:53:58 46° SW visible
19 May -3.8 23:26:49 10° WSW 23:30:10 69° S 23:33:32 10° E visible
20 May -3.8 01:03:32 10° W 01:06:53 59° SSW 01:07:49 40° SE visible
20 May -1.2 02:40:36 10° W 02:40:45 11° W 02:40:45 11° W visible
20 May -3.7 22:39:24 10° WSW 22:42:44 61° SSE 22:46:05 10° E visible
21 May -3.8 00:16:04 10° W 00:19:26 67° S 00:21:44 19° ESE visible
21 May -2.2 01:52:58 10° W 01:54:40 22° WSW 01:54:40 22° WSW visible
21 May -3.8 23:28:37 10° W 23:31:59 72° S 23:35:21 10° E visible
22 May -3.2 01:05:26 10° W 01:08:36 38° SSW 01:08:38 38° SSW visible
22 May -3.8 22:41:10 10° W 22:44:32 73° S 22:47:54 10° E visible
23 May -3.5 00:17:55 10° W 00:21:12 48° SSW 00:22:38 28° SE visible
23 May -1.2 01:55:20 10° WSW 01:55:34 11° WSW 01:55:34 11° WSW visible
23 May -3.7 23:30:26 10° W 23:33:47 59° SSW 23:36:39 13° ESE visible
24 May -2.1 01:07:31 10° W 01:09:36 21° SW 01:09:36 21° SW visible
24 May -3.7 22:42:58 10° W 22:46:20 67° S 22:49:41 10° ESE visible
25 May -2.7 00:19:52 10° W 00:22:51 29° SSW 00:23:38 26° S visible
25 May -3.1 23:32:18 10° W 23:35:29 38° SSW 23:37:42 17° SE visible
26 May -1.2 01:10:34 10° WSW 01:10:38 10° WSW 01:10:38 10° WSW visible
26 May -3.3 22:44:48 10° W 22:48:04 48° SSW 22:51:20 10° ESE visible
